Location: ???? ??
(36.0534°N, 43.5630°E)
Time: 23:38:13
(UTC+00:00)

Meteor 2-17 Rocket - Pass Details

Date: 18 September 2019
Orbit: 934 x 957 km, 82.5° (Epoch: 20 October)

Event Time Altitude Azimuth Distance (km) Brightness Sun altitude
Rises 17:22:25 0° 351° (N) 3,610 7.9 -26.9°
Reaches altitude 10° 17:24:55 10° 349° (N) 2,659 7.2 -27.4°
Maximum altitude 17:30:58 75° 266° (W) 970 4.5 -28.5°
Enters shadow 17:32:18 55° 199° (SSW) 1,112 4.6 -28.7°
